DECAYED

STARLINK-4679, 53782 (Decayed)

Orbit data source: Space-Track

STARLINK-4679, 53782 was a payload satellite owned by SpaceX/Seattle (US) in LEO that was launched on Sun, 11 Sep 2022 UTC via an FALCON 9 launch vehicle from the Air Force Eastern Test Range (AFETR). Payload-class satellites include a variety of spacecraft equipped with specific instruments for various scientific and technological missions. These include communications satellites like Starlink; space stations such as the ISS; scientific satellites like the Hubble; Earth observation satellites from companies like Planet Labs, Umbra, and HawkEye 360; GPS; miniature CubeSats for education and research; and military/defense satellites.

Not visible in the next 10 days
Identifier
53782, 2022-111K
Orbit
Decayed
Country
Flag of USUS
Related business
Manufacturer
SpaceX/Seattle
Mission
Decayed Commercial Communications
Bus & Motor
STARLINK, Unknown motor
Mass
305 kg wet, ~290 kg dry
Launch date (UTC)
2022-09-11 (4 years ago)
Launch vehicle
FALCON 9
Launch site
Air Force Eastern Test Range (AFETR)
Object type
Payload
Rocket body
Debris
Shape & HBR
Box + 1 Pan, 10.1 m
Radar Cross Section
13.562 m², Large (>1 m²)

Expand to show TLE details & history
Last TLE update: 2 months ago

TLE from 2 months ago
0 STARLINK-4679
1 53782U 22111K   26182.71534766  .10721676  12554-4  15626-3 0  9994
2 53782  53.1966  79.7548 0008217 260.1970  99.8154 16.48229663211490
Epoch: 2026-07-01T17:10Z
TLE epoch observation values (Epoch: 2026-07-01T17:10:06.037Z)
Latitude
-0.00007°
Longitude
-97.53852°
Altitude
145.869 km
Speed
7.819 km/s
True Right ascension
05h 19m 01s
True Declination
0° 00' 00"
Sunlit
Object was in daylight at epoch
Visualization orbit readout
Latitude
Unknown
Longitude
Unknown
Altitude
Unknown
Speed
Unknown
Apparent Right ascension
Unknown
Apparent Declination
Unknown
Sunlit
N/A
Visualization observer readout
Local Sidereal Time
10:06:25
Azimuth
Unknown
Elevation
Unknown
Doppler factor
Unknown
Orbital elements
Apogee altitude
149.624 km
Perigee altitude
138.905 km
Semi-major axis
6,522.401 km
Eccentricity
0.00082
Inclination
53.1966°
RAAN
79.7548°
Arg. of periapsis
260.197°
True anomaly
99.90817°
Mean anomaly
99.8154°
Eccentric anomaly
99.86178°
Mean motion
4.12033 °/min
Orbital period
87.37 mins
BSTAR
0.00015626
Loading maneuver chart data...
Computing Atmospheric mass density...
Loading historical data...
Loading historical data...
Loading historical data...
Loading historical data...
Loading historical data...
Loading historical data...
Loading historical data...

Documentation

Showing up to 5 results
|